EHI
0 0 0 0 0 0 0 0 0 0 0 0 0 0 0 0 0 0 0 0 0 0 0 0 0 0 0 0 0 0 0 0 0 0 0 0 0 0 0 0 0 0 0 0
0 0 0 0 0 0 0 0 0 0 0 0 0 0 0 0 0 0 0 0 0 0 0 0 0 0 0 0 0 0 0 0 0 0 0 0 0 0 0 0 0 0 0 0
0 0 0 0 0 0 0 0 0 0 0 0 0 0 0 0 0 0 0 0 0 0 0 0 0 0 0 0 0 0 0 0 0 0 0 0 0 0 0 0 0 0 0 0
0 0 0 0 0 0 0 0 0 0 0 0 0 0 0 0 0 0 0 0 0 0 0 0 0 0 0 0 0 0 0 0 0 0 0 0 0 0 0 0 0 0 0 0
0 0 0 0 0 0 0 0 0 0 0 0 0 0 0 0 0 0 0 0 0 0 0 0 0 0 0 0 0 0 0 0 0 0 0 0 0 0 0 0 0 0 0 0
0 0 0 0 0 0 0 0 0 0 0 0 0 0 0 0 0 0 0 0 0 0 0 0 0 0 0 0 0 0 0 0 0 0 0 0 0 0 0 0 0 0 0 0
0 0 0 0 0 0 0 0 0 0 0 0 0 0 0 0 0 0 0 0 0 0 0 0 0 0 0 0 0 0 0 0 0 0 0 0 0 0 0 0 0 0 0 0
0 0 0 0 0 0 0 0 0 0 0 0 0 0 0 0 0 0 0 0 0 0 0 0 0 0 0 0 0 0 0 0 0 0 0 0 0 0 0 0 0 0 0 0
0 0 0 0 0 0 0 0 0 0 0 0 0 0 0 0 0 0 0 0 0 0 0 0 0 0 0 0 0 0 0 0 0 0 0 0 0 0 0 0 0 0 0 0
0 0 0 0 0 0 0 0 0 0 0 0 0 0 0 0 0 0 0 0 0 0 0 0 0 0 0 0 0 0 0 0 0 0 0 0 0 0 0 0 0 0 0 0
0 0 0 0 0 0 0 0 0 0 0 0 0 0 0 0 0 0 0 0 0 0 0 0 0 0 0 0 0 0 0 0 0 0 0 0 0 0 0 0 0 0 0 0
0 0 0 0 0 0 0 0 0 0 0 0 0 0 0 0 0 0 0 0 0 0 0 0 0 0 0 0 0 0 0 0 0 0 0 0 0 0 0 0 0 0 0 0
0 0 0 0 0 0 0 0 0 0 0 0 0 0 0 0 0 0 0 0 0 0 0 0 0 0 0 0 0 0 0 0 0 0 0 0 0 0 0 0 0 0 0 0
0 0 0 0 0 0 0 0 0 0 0 0 0 0 0 0 0 0 0 0 0 0 0 0 0 0 0 0 0 0 0 0 0 0 0 0 0 0 0 0 0 0 0 0
0 0 0 0 0 0 0 0 0 0 0 0 0 0 0 0 0 0 0 0 0 0 0 0 0 0 0 0 0 0 0 0 0 0 0 0 0 0 0 0 0 0 0 0
0 0 0 0 0 0 0 0 0 0 0 0 0 0 0 0 0 0 0 0 0 0 0 0 0 0 0 0 0 0 0 0 0 0 0 0 0 0 0 0 0 0 0 0
0 0 0 0 0 0 0 0 0 0 0 0 0 0 0 0 0 0 0 0 0 0 0 0 0 0 0 0 0 0 0 0 0 0 0 0 0 0 0 0 0 0 0 0
0 0 0 0 0 0 0 0 0 0 0 0 0 0 0 0 0 0 0 0 0 0 0 0 0 0 0 0 0 0 0 0 0 0 0 0 0 0 0 0 0 0 0 0
0 0 0 0 0 0 0 0 0 0 0 0 0 0 0 0 0 0 0 0 0 0 0 0 0 0 0 0 0 0 0 0 0 0 0 0 0 0 0 0 0 0 0 0
0 0 0 0 0 0 0 0 0 0 0 0 0 0 0 0 0 0 0 0 0 0 0 0 0 0 0 0 0 0 0 0 0 0 0 0 0 0 0 0 0 0 0 0
0 0 0 0 0 0 0 0 0 0 0 0 0 0 0 0 0 0 0 0 0 0 0 0 0 0 0 0 0 0 0 0 0 0 0 0 0 0 0 0 0 0 0 0
0 0 0 0 0 0 0 0 0 0 0 0 0 0 0 0 0 0 0 0 0 0 0 0 0 0 0 0 0 0 0 0 0 0 0 0 0 0 0 0 0 0 0 0
0 0 0 0 0 0 0 0 0 0 0 0 0 0 0 0 0 0 0 0 0 0 0 0 0 0 0 0 0 0 0 0 0 0 0 0 0 0 0 0 0 0 0 0
0 0 0 0 0 0 0 0 0 0 0 0 0 0 0 0 0 0 0 0 0 0 0 0 0 0 0 0 0 0 0 0 0 0 0 0 0 0 0 0 0 0 0 0
0 0 0 0 0 0 0 0 0 0 0 0 0 0 0 0 0 0 0 0 0 0 0 0 0 0 0 0 0 0 0 0 0 0 0 0 0 0 0 0 0 0 0 0
0 0 0 0 0 0 0 0 0 0 0 0 0 0 0 0 0 0 0 0 0 0 0 0 0 0 0 0 0 0 0 0 0 0 0 0 0 0 0 0 0 0 0 0
0 0 0 0 0 0 0 0 0 0 0 0 0 0 0 0 0 0 0 0 0 0 0 0 0 0 0 0 0 0 0 0 0 0 0 0 0 0 0 0 0 0 0 0
Wind_Speed
5 4 3 5 6 6 8 7 8 8 8 9 6 4 3 2 2 2 3 3 2 2 3 3 3 4 3 4 4 4 4 4 4 5 5 4 4 5 5 4 5 5 5 5
3 3 3 5 7 7 8 7 8 7 10 6 3 2 2 2 3 4 4 4 3 4 4 4 4 4 4 4 5 4 4 4 5 4 5 5 5 5 5 5 5 5 5 5
3 2 3 7 8 8 6 6 7 9 9 2 2 4 3 4 4 5 5 5 5 5 5 4 4 4 4 5 5 4 4 5 4 4 5 5 5 5 5 5 5 5 5 5
2 1 7 8 2 5 5 5 5 5 4 3 4 3 3 4 4 5 5 5 5 5 5 4 4 4 4 4 4 4 4 5 5 5 5 5 5 5 5 5 5 5 6 6
2 3 8 6 2 2 4 5 4 5 4 3 2 2 3 1 2 4 5 5 5 4 4 4 4 4 3 4 4 4 5 5 5 5 5 5 6 6 5 5 5 5 6 6
3 3 7 6 2 1 3 5 2 3 4 3 1 2 4 2 3 4 4 4 3 3 3 3 4 3 3 4 4 5 5 6 6 5 5 6 6 6 5 5 5 5 6 6
5 5 9 5 2 2 3 6 1 2 3 3 3 5 4 4 4 4 4 4 3 3 3 4 4 3 3 4 5 6 5 6 6 5 6 6 6 5 4 4 4 5 6 6
4 5 9 2 3 5 5 1 1 1 2 3 4 4 4 4 4 4 5 4 4 3 4 4 3 3 4 5 5 5 5 5 5 5 5 4 4 4 4 3 4 4 5 5
8 8 3 3 4 3 1 1 1 2 3 3 4 4 4 4 4 4 4 4 4 3 4 4 4 3 4 5 5 5 5 5 5 5 5 5 4 4 3 3 3 4 4 4
4 6 4 3 2 1 1 2 2 2 3 2 4 4 5 4 4 4 4 4 4 4 4 5 4 4 4 5 4 4 5 5 4 4 5 4 4 4 3 3 4 4 4 4
5 5 3 3 3 3 2 1 2 2 2 3 3 4 4 4 4 4 4 4 3 3 4 5 5 5 5 5 4 4 4 4 4 4 4 4 4 4 4 4 5 5 4 4
7 5 4 5 2 1 1 2 2 2 3 3 3 4 4 4 4 4 4 4 4 4 4 5 5 5 5 5 4 3 4 4 3 4 4 4 4 5 7 7 8 9 9 8
4 2 2 3 1 0 1 3 3 3 3 4 3 3 4 4 4 3 4 4 4 5 5 5 5 5 6 5 4 4 4 4 4 4 4 4 4 4 5 6 8 9 10 10
1 0 1 2 2 2 2 2 2 2 3 3 3 3 3 3 4 4 4 4 4 4 4 5 5 6 5 5 5 4 4 5 5 3 3 4 4 4 4 4 5 5 7 10
1 2 3 2 1 2 2 2 2 3 3 3 3 3 3 4 4 5 4 4 3 3 4 4 5 6 5 4 5 5 4 3 3 3 3 3 4 4 4 4 4 5 5 7
2 1 1 2 3 3 2 2 3 5 4 4 4 4 4 4 4 4 3 3 3 4 5 5 6 6 5 4 4 4 4 7 6 3 3 3 3 3 4 4 4 4 5 5
1 2 2 3 4 4 4 4 4 5 5 5 5 4 4 3 3 4 4 3 4 5 5 6 6 5 5 4 4 3 3 4 7 5 3 3 3 4 4 4 4 4 4 6
3 3 4 4 4 5 5 4 4 4 5 5 4 3 3 3 4 5 4 4 4 5 5 6 5 5 5 4 4 3 3 3 3 4 3 3 4 4 4 4 4 5 5 6
1 2 2 3 3 3 4 4 4 4 4 4 3 4 4 5 5 4 4 3 4 5 6 5 7 5 5 5 5 3 3 4 4 4 4 6 5 4 4 4 5 5 5 5
1 2 2 3 3 2 3 4 4 4 4 3 3 4 4 5 4 4 4 4 4 5 5 6 5 4 4 5 6 3 3 4 4 4 4 4 4 4 4 5 5 5 5 5
2 2 3 3 3 3 3 3 3 4 4 3 3 4 5 5 4 3 3 5 5 5 5 7 4 3 4 5 6 3 3 3 3 4 4 4 4 5 5 5 5 5 5 5
2 2 3 3 3 4 4 3 3 4 4 4 4 4 4 5 4 4 4 5 5 7 5 3 3 5 6 6 2 2 3 3 3 4 4 4 4 5 5 5 5 5 5 5
2 2 3 3 3 4 4 3 3 3 4 4 4 4 5 4 3 3 4 4 4 7 5 4 6 9 9 4 2 3 3 4 4 4 4 4 4 5 5 6 5 5 5 5
2 2 2 2 2 3 4 4 4 3 4 4 4 4 4 4 3 3 4 7 9 9 4 7 10 9 8 2 2 3 4 4 4 4 4 4 4 5 5 5 6 6 6 6
2 2 2 2 2 3 4 4 4 4 4 3 4 4 3 3 3 4 3 4 8 8 4 6 10 10 5 3 3 4 4 4 4 4 4 5 5 5 5 5 5 6 6 6
2 2 2 2 3 3 3 3 3 3 3 3 3 3 3 3 3 3 3 4 5 7 5 4 5 6 4 4 4 4 4 5 6 5 5 5 5 5 5 6 7 6 6 6
2 2 2 2 2 2 2 2 3 3 3 3 4 4 3 3 3 3 4 4 4 4 4 4 4 4 4 4 4 4 4 4 5 5 5 5 5 5 6 7 6 6 6 6
Wind_Direction
248 254 210 231 238 204 203 211 217 238 240 253 248 246 251 260 281 295 298 299 302 302 305 312 318 316 314 315 316 312 307 305 300 301 301 298 296 291 284 278 276 269 263 263
269 258 242 260 253 224 223 227 234 255 264 262 258 246 267 262 262 270 275 278 286 292 295 298 302 305 309 308 309 310 301 299 304 308 306 302 295 291 288 281 276 275 265 262
259 292 333 270 234 207 211 213 202 229 244 258 269 259 248 250 249 254 262 272 273 272 268 273 278 285 288 295 303 305 301 301 303 302 299 296 296 296 290 283 278 274 270 264
250 24 242 245 219 189 205 238 222 236 260 248 247 260 265 252 238 254 273 278 275 273 277 280 283 288 289 294 296 296 297 297 298 298 295 296 294 291 287 284 279 273 273 267
177 230 271 284 251 175 191 261 231 229 259 280 301 319 291 260 242 262 272 273 272 270 272 277 280 281 286 289 292 293 293 293 294 293 292 293 290 288 286 284 283 276 274 269
172 203 243 251 255 197 116 275 238 204 243 264 346 276 274 302 312 306 306 296 290 288 288 281 284 279 276 282 286 286 289 291 291 288 286 285 283 283 283 280 279 280 279 274
203 226 259 257 254 134 179 247 209 196 229 220 220 239 274 306 311 311 312 310 305 296 290 283 285 279 277 281 281 286 292 294 291 291 287 283 284 283 281 280 283 283 283 282
181 212 252 232 136 184 219 245 168 224 236 236 251 273 288 298 305 312 314 314 313 305 301 299 291 281 282 283 290 297 296 296 295 295 292 294 288 287 283 279 281 282 281 283
193 214 244 175 189 217 160 205 248 246 256 250 264 275 286 293 297 302 303 306 310 303 303 305 300 285 281 291 299 301 300 298 297 300 299 297 290 285 286 277 269 275 276 281
240 257 249 233 237 248 216 228 250 247 253 243 258 274 283 288 294 299 302 304 308 307 305 307 307 300 289 293 298 297 297 297 297 300 300 297 292 285 277 265 264 268 272 278
247 268 301 271 231 237 248 256 271 285 271 256 256 274 276 283 288 290 295 301 299 293 295 299 308 308 304 301 296 295 295 294 296 294 291 294 292 281 280 265 263 265 261 264
231 228 211 248 238 207 236 267 265 276 294 291 265 268 277 280 282 287 292 297 297 293 294 299 304 306 307 304 294 285 290 294 293 293 290 289 294 298 293 290 296 290 281 279
232 253 233 258 267 239 256 272 274 266 265 279 279 267 271 279 284 288 289 288 286 288 291 295 298 300 303 303 300 288 281 287 287 289 292 289 289 292 302 307 304 303 302 296
236 157 265 258 263 287 278 286 295 291 280 275 276 278 275 281 287 284 280 282 287 290 293 295 295 296 299 302 298 293 288 284 288 285 289 292 289 287 287 295 305 307 307 308
260 216 228 256 281 304 304 304 304 294 289 289 281 278 274 275 278 280 283 290 298 294 293 295 295 298 304 303 300 297 295 290 287 290 291 293 293 290 288 289 292 299 304 310
286 286 244 250 273 288 293 284 280 283 286 288 287 283 277 272 277 285 289 286 287 289 293 293 291 296 302 301 299 297 292 296 305 301 298 300 300 297 294 293 294 298 301 304
202 253 261 276 282 287 278 271 268 274 279 280 281 286 286 285 289 292 294 290 283 284 288 288 291 299 300 297 294 292 291 295 304 307 300 298 298 294 290 288 290 292 292 298
226 238 244 252 265 278 284 283 281 281 277 276 283 285 278 272 274 281 289 298 299 297 293 292 296 296 294 296 292 289 290 292 294 295 296 298 298 294 292 290 289 289 293 301
265 264 274 275 271 268 273 279 283 283 283 280 275 274 273 268 268 275 283 286 287 293 298 299 304 308 300 296 300 288 292 294 295 296 296 297 302 301 299 296 292 289 290 293
323 319 312 308 305 287 283 287 289 290 289 283 279 283 288 284 277 278 279 272 266 272 287 297 296 291 291 291 297 289 286 290 291 293 294 292 295 298 297 296 298 295 292 290
305 308 308 307 307 301 289 286 288 291 295 287 273 275 281 287 283 276 277 285 286 287 289 296 300 294 288 291 293 291 288 290 292 290 290 292 294 295 296 298 299 299 294 292
291 293 296 299 302 303 301 294 287 288 296 295 285 280 283 288 289 283 265 263 283 299 304 289 287 293 301 303 292 288 288 290 291 292 292 293 294 294 295 295 295 295 294 291
285 286 292 295 293 296 304 301 291 286 286 287 287 285 282 280 276 278 290 288 289 299 304 290 299 307 313 316 303 293 292 293 293 292 292 293 293 293 294 294 293 293 293 292
291 292 292 297 302 302 304 304 299 289 283 283 281 278 280 287 286 268 271 299 309 310 303 302 311 315 321 323 307 298 294 293 292 293 293 292 292 293 293 294 294 294 291 290
292 292 297 308 307 297 295 302 308 304 301 300 301 298 287 272 275 293 297 296 306 315 312 311 316 320 324 312 303 298 294 291 291 291 289 291 292 293 294 295 295 294 293 292
302 297 290 285 283 292 302 306 307 309 312 312 313 311 307 302 294 296 300 300 301 311 314 308 309 313 310 303 298 295 293 298 303 301 296 294 293 293 294 294 294 292 292 291
321 313 311 313 312 311 310 308 308 309 308 304 305 310 315 315 313 312 309 309 308 308 304 303 304 302 300 298 297 295 292 291 290 290 291 290 289 289 291 290 290 290 291 292